Find GE-1A

NORAD ID: 26554 Int'l Des: 2000-059 Owner: AMCG/GECAP Country: US operational
HEOCIRCULARGSO

現在のビュー

3D地球を読み込み中...

GE-1Aについて

説明を読み込み中...

次回通過

Passes for default location (London). Set your location on the main map for personalized predictions.

高度履歴

Loading altitude history...

軌道要素

1 26554U 00059A 26150.59473514 .00000036 00000-0 00000-0 0 9997
2 26554 2.0823 81.5942 0003298 342.3594 214.2551 1.00271033 41114
Epoch: May 30, 2026 • Age: 10 hours

現在のステータス

高度 35772.4 km
速度 3.08 km/s
衛星直下点 -0.51°S, 176°E
打ち上げ日 Oct 1, 2000
運用期間 25.6 years
タイプ other

技術仕様

分類 Payload
質量 3593.00 kg
乾燥質量 1601.00 kg
総質量 3593.00 kg
長さ 6.10 m
直径 2.50 m
スパン 27.00 m
形状 Box + 2 Pan
製造者 LMCSS
バスタイプ A2100AX
フェーズステータス Unknown Active Status
所有者/国 AMCG/GECAP/US

Most Searched